Erzincan, Turkey

12:11 PM +03 on May 25, 2017 (GMT +0300)
Erzincan

Weather History for LTCD - October, 2012

Change the Weather History Date:

Tuesday, October 23, 2012

  Actual Average Record
Temperature  
Mean Temperature 49 °F -  
Max Temperature 56 °F 56 °F - ()
Min Temperature 42 °F 35 °F - ()
Degree Days  
Heating Degree Days 16    
Moisture  
Dew Point 47 °F    
Average Humidity 89    
Maximum Humidity 100    
Minimum Humidity 69    
Precipitation  
Precipitation 0.08 in 0.05 in - ()
Sea Level Pressure  
Sea Level Pressure 30.07 in    
Wind  
Wind Speed 0 mph ()    
Max Wind Speed 5 mph    
Max Gust Speed -    
Visibility 6.2 miles    
Events Rain    
T = Trace of Precipitation, MM = Missing Value Source: Averaged Metar Reports

Daily Weather History Graph

Daily Weather History Graph

Search for Another Location

Airport or City:

Trip Planner

Search our weather history database for the weather conditions in past years. The results will help you decide how hot, cold, wet, or windy it might be!

Date:

Astronomy

Oct. 23, 2012 Rise Set
Actual Time 6:40 AM EEST 5:31 PM EEST
Civil Twilight 6:13 AM EEST 5:58 PM EEST
Nautical Twilight 5:41 AM EEST 6:30 PM EEST
Astronomical Twilight 5:10 AM EEST 7:01 PM EEST
Moon 2:01 PM EEST (10/23) 12:10 AM EEST (10/23)
Length of Visible Light 11h 45m
Length of Day
10h 50m
Waxing Gibbous, 63% of the Moon is Illuminated
Oct 23
Waxing Gibbous
Oct 29
Full
Nov 7
Last Quarter
Nov 14
New
Nov 20
First Quarter

Hourly Weather History & Observations

Time (EEST) Temp. Dew Point Humidity Pressure Visibility Wind Dir Wind Speed Gust Speed Precip Events Conditions
12:50 AM 46.4 °F 42.8 °F 87% 30.09 in 6.2 mi Variable 1.2 mph - N/A   Scattered Clouds
1:50 AM 46.4 °F 42.8 °F 87% 30.09 in 6.2 mi Calm Calm - N/A   Scattered Clouds
3:00 AM 44 °F 43 °F 95%  in 6 mi Calm Calm - -   Partly Cloudy
3:50 AM 42.8 °F 41.0 °F 93% 30.06 in 6.2 mi Calm Calm - N/A   Scattered Clouds
4:50 AM 44.6 °F 42.8 °F 93% 30.06 in 6.2 mi Calm Calm - N/A   Scattered Clouds
5:50 AM 42.8 °F 41.0 °F 93% 30.06 in 6.2 mi Calm Calm - N/A   Scattered Clouds
6:50 AM 44.6 °F 42.8 °F 93% 30.06 in 6.2 mi Calm Calm - N/A   Mostly Cloudy
7:50 AM 46.4 °F 42.8 °F 87% 30.06 in 6.2 mi Calm Calm - N/A   Mostly Cloudy
8:50 AM 48.2 °F 44.6 °F 87% 30.06 in 6.2 mi Calm Calm - N/A   Mostly Cloudy
9:50 AM 51.8 °F 46.4 °F 82% 30.09 in 6.2 mi Calm Calm - N/A   Mostly Cloudy
10:50 AM 53.6 °F 48.2 °F 82% 30.09 in 6.2 mi NW 2.3 mph - N/A Rain Light Rain Showers
11:50 AM 53.6 °F 48.2 °F 82% 30.09 in 6.2 mi West 4.6 mph - N/A Rain Light Rain Showers
12:50 PM 55.4 °F 50.0 °F 82% 30.06 in 6.2 mi Variable 1.2 mph - N/A Rain Light Rain Showers
1:50 PM 55.4 °F 48.2 °F 77% 30.06 in 6.2 mi Calm Calm - N/A Rain Light Rain Showers
2:50 PM 55.4 °F 48.2 °F 77% 30.06 in 6.2 mi Variable 1.2 mph - N/A   Mostly Cloudy
3:00 PM 56 °F 49 °F 69%  in 6 mi ESE 1.2 mph - - Rain Light Rain Showers
3:50 PM 55.4 °F 50.0 °F 82% 30.06 in 6.2 mi Calm Calm - N/A Rain Light Rain Showers
4:50 PM 53.6 °F 50.0 °F 88% 30.06 in 6.2 mi Calm Calm - N/A Rain Light Rain Showers
5:50 PM 53.6 °F 51.8 °F 94% 30.06 in 6.2 mi Calm Calm - N/A   Mostly Cloudy
7:50 PM 53.6 °F 51.8 °F 94% 30.09 in 6.2 mi Calm Calm - N/A   Mostly Cloudy
8:50 PM 51.8 °F 51.8 °F 100% 30.09 in 6.2 mi Calm Calm - N/A   Mostly Cloudy
9:00 PM 52 °F 51 °F 94%  in 12 mi Calm Calm - -   Partly Cloudy
9:50 PM 51.8 °F 51.8 °F 100% 30.09 in 6.2 mi Calm Calm - N/A Rain Light Rain Showers
10:50 PM 51.8 °F 51.8 °F 100% 30.09 in 4.3 mi Calm Calm - N/A   Mostly Cloudy
11:50 PM 50.0 °F 50.0 °F 100% 30.09 in 3.7 mi Calm Calm - N/A   Mostly Cloudy